This demonstration page uses our WeatherBlox Daily Observations layout. Learn more.

Left ArrowRight Arrow

41.55636, -103.73856

Hourly Observations for October 7, 2021

Temp ( °F °C ) Dew Point ( °F °C ) Humidity (%) Winds ( mph kmh ) Pressure ( in mb ) Visibility ( mi km ) Precip ( " mm )
12:58 am 00:58 Mostly Cloudy 61 16.1 40 4.4 46 46 N 5 7 29.91 1013 10 16 0.00 0.00
1:58 am 01:58 Cloudy with Light Rain 58 14.3 46 7.5 64 64 N 7 11 29.92 1013 10 16 0.03 0.76
2:58 am 02:58 Mostly Cloudy 59 15.2 44 6.8 57 57 SW 3 6 29.93 1014 10 16 0.00 0.00
3:58 am 03:58 Mostly Cloudy 55 12.9 45 7.3 69 69 SSW 5 7 29.93 1014 10 16 0.00 0.00
4:59 am 04:59 undefined N/A N/A N/A undefined N/A N/A N/A 0.00 0.00
5:58 am 05:58 Clear 51 10.8 40 4.5 65 65 WSW 6 9 29.97 1015 10 16 0.00 0.00
6:58 am 06:58 Clear 47 8.5 38 3.5 71 71 WSW 8 13 29.99 1016 10 16 0.00 0.00
7:58 am 07:58 Sunny 52 11.1 38 3.5 60 60 W 3 6 29.99 1016 10 16 0.00 0.00
8:58 am 08:58 Sunny 60 15.8 39 4.1 46 46 WNW 12 19 29.99 1016 10 16 0.00 0.00
9:58 am 09:58 Sunny 65 18.5 39 3.9 38 38 NW 15 24 29.99 1016 10 16 0.00 0.00
10:58 am 10:58 Sunny 69 20.8 37 3 31 31 NW 13 20 29.97 1015 10 16 0.00 0.00
11:58 am 11:58 Sunny 73 22.5 37 3 28 28 NNW 14 22 29.95 1014 10 16 0.00 0.00
12:58 pm 12:58 Sunny 74 23.3 37 2.7 26 26 NNW 7 11 29.94 1014 10 16 0.00 0.00
1:58 pm 13:58 Sunny 75 23.7 35 1.7 24 24 NW 15 24 29.93 1014 10 16 0.00 0.00
2:58 pm 14:58 Sunny 76 24.3 34 1.3 22 22 NNW 9 15 29.92 1013 10 16 0.00 0.00
3:58 pm 15:58 Sunny 75 24.1 35 1.4 23 23 N 8 13 29.91 1013 10 16 0.00 0.00
4:58 pm 16:58 Sunny 75 24.1 34 1.1 22 22 N 7 11 29.89 1012 10 16 0.00 0.00
5:58 pm 17:58 Sunny 71 21.6 35 1.8 27 27 ENE 7 11 29.93 1013 10 16 0.00 0.00
6:58 pm 18:58 Clear 65 18.6 34 1.3 32 32 E 8 13 29.96 1015 10 16 0.00 0.00
7:58 pm 19:58 Clear 65 18.2 34 1.3 32 32 SE 10 17 29.96 1014 10 16 0.00 0.00
8:58 pm 20:58 Clear 59 15.1 35 1.5 40 40 S 7 11 29.96 1015 10 16 0.00 0.00
9:58 pm 21:58 Partly Cloudy 60 15.5 34 1.3 38 38 Calm 29.95 1014 10 16 0.00 0.00
10:58 pm 22:58 Mostly Clear 56 13.6 35 1.4 44 44 SW 7 11 29.94 1014 10 16 0.00 0.00
11:58 pm 23:58 Mostly Cloudy 57 13.9 35 1.5 43 43 NW 6 9 29.95 1014 10 16 0.00 0.00

Powered by AerisWeather